Zurück zum Katalog

CZ-6A DEB

AktivPO
NORAD 60699·DEBRIS·🇨🇳 China

Gestartet Aug 6, 2024 von Taiyuan Satellite Launch Center

Loading…

Nächste Überflüge (nächste 24 Stunden)

TLE

AktuellSource: Space-Track

Epoche: Sep 14, 2026, 08:58 UTC

1 60699U 24140DC  26257.37405655  .00000628  00000-0  29330-3 0  9994
2 60699  88.6996 238.0580 0064421 239.4395 120.0428 14.18050860108050

Verfolge CZ-6A DEB in Echtzeit mit AllMySat

Download on the App Store